www.pogodaiklimat.ru

Погода и климат >> Архив погоды >> Аргентина >> Mendoza


ПОГОДА в Mendoza

  • Прогноз погоды в Mendoza
  • Монитор погоды в Mendoza
  • Климат города

АРХИВ ПОГОДЫ в Mendoza

Время (UTC), дата Ветер
(напр.,м/с)
 
Видим.   Явления Облачность Т
(С)
Тd
(С)
f
(%)
Тe
(С)
Тes
(С)
Комфортность P
(гПа)
Po
(гПа)
Тmin
(С)
Tmax
(С)
R
(мм)
R24
(мм)
S
(см)
03 15.10 штиль 0 15 км ясно +14.7 +0.7 38 +15 +15 1015.8 936.2
06 15.10 ЮЗ 2 15 км ясно +12.2 +0.6 45 +12 +12 1013.8 934.8
09 15.10 Ю 2 15 км ясно +10.8 +0.8 50 +10 +10 1013.1 934.0
12 15.10 ЮЗ 1 15 км ясно +15.7 +0.4 35 +17 +21 1014.6 935.3 +8.7 +20.3
15 15.10 В 4 15 км ясно +20.9 +2.2 29 +21 +33 комфорт 1012.7 933.4
18 15.10 СВ 4 15 км 3/0
[Ac As Cs]
+25.7 -2.0 16 +24 +35 комфорт 1008.7 930.1
21 15.10 С 5 15 км 8/0
[Ac As Ci fib]
+28.1 -0.4 16 +25 +26 комфорт 1006.0 927.7
00 16.10 ЮЗ 2 15 км ясно +21.5 +2.7 29 +21 +21 комфорт 1007.2 928.6 +15.7 +29.1
03 16.10 Ю 2 15 км ясно +17.5 +2.7 37 +18 +18 1007.5 929.0
06 16.10 ЮЗ 2 15 км ясно +15.0 +3.3 45 +15 +15 1004.6 926.6
09 16.10 штиль 0 15 км ясно +12.0 +3.3 55 +12 +12 1004.7 926.6
12 16.10 Ю 1 15 км ясно +18.6 +5.0 41 +20 +24 1005.9 927.8 +10.7 +21.5
15 16.10 В 2 15 км ясно +24.6 +5.3 29 +24 +40 комфорт 1004.4 926.6
18 16.10 В 4 15 км 1/1 <50 м
[Sc]
+30.0 +1.7 16 +27 +39 жарко 1000.4 923.3
21 16.10 Ю 5 15 км 4/3 1500 м
[Cu Sc Ac As]
+32.7 +1.5 14 +30 +31 жарко 998.9 921.8
00 17.10 СВ 3 15 км ясно +28.0 -9.3 8 +24 +24 комфорт 1001.7 924.6 +18.2 +33.4
03 17.10 З 2 15 км ясно +26.8 -13.0 6 +23 +23 комфорт 1002.4 926.0
06 17.10 ЮВ 1 15 км ясно +20.0 -0.9 24 +21 +21 комфорт 1003.6 926.9
09 17.10 З 2 15 км ясно +17.8 +0.7 32 +19 +19 1005.9 929.0
12 17.10 Ю 3 15 км ясно +23.4 +4.1 28 +23 +26 комфорт 1007.8 931.0 +15.4 +29.6
15 17.10 В 4 15 км 1/0
[Ac As]
+27.4 +0.9 18 +25 +35 комфорт 1006.5 930.0
18 17.10 В 4 15 км 5/1 1500 м
[Sc Ac As Cs]
+29.6 +1.6 17 +27 +36 жарко 1003.9 927.0
21 17.10 ЮВ 4 15 км 4/0
[Ac As Cs]
+30.2 +1.4 16 +28 +30 жарко 1002.1 925.3
00 18.10 ЮЗ 2 15 км 5/0
[Ac As Cs]
+24.8 +4.8 27 +24 +24 комфорт 1002.9 926.0 +23.2 +31.0
03 18.10 ЮЗ 2 15 км 4/0
[Ac As Cs]
+21.2 +4.6 34 +22 +22 комфорт 1003.8 926.8
06 18.10 ЮЗ 2 15 км ясно +19.8 +3.5 34 +21 +21 комфорт 1001.3 924.6
09 18.10 штиль 0 15 км ясно +17.6 +5.2 44 +18 +18 1000.4 923.7
12 18.10 ЮЗ 1 15 км 1/0
[Ac As]
+23.8 +5.4 30 +24 +28 комфорт 1003.5 926.1 +17.0 +24.8
15 18.10 ЮВ 4 15 км 1/1 1500 м
[Sc]
+25.2 +12.8 46 +27 +37 жарко 1004.4 927.0
18 18.10 ЮВ 6 15 км 6/6 1350 м
[Cu med, cong]
+26.6 +6.7 28 +26 +29 жарко 1006.1 928.8
21 18.10 ЮВ 6 15 км 1/1 1500 м
[Sc]
+25.6 +3.8 24 +25 +26 комфорт 1006.9 929.0
00 19.10 Ю 2 15 км ясно +19.0 +2.8 34 +20 +20 1014.0 935.6 +18.4 +27.5
03 19.10 ЮВ 3 15 км ясно +16.4 +2.2 38 +16 +16 1017.3 938.6
06 19.10 ЮВ 2 15 км ясно +14.0 +2.1 44 +14 +14 1018.5 939.4
09 19.10 З 2 15 км ясно +11.0 +1.3 51 +11 +11 1018.2 938.6
12 19.10 С 2 15 км 4/0
[Cs]
+16.1 -4.1 25 +17 +20 1019.0 939.2 +8.7 +19.7
15 19.10 С 7 15 км 4/0
[Cs]
+20.3 -7.6 15 +19 +24 1016.2 936.9
18 19.10 С 4 15 км 3/0
[Cs]
+23.3 -6.6 13 +21 +33 комфорт 1011.2 932.2
21 19.10 СВ 5 15 км 3/0
[Ac As Cs]
+25.1 -4.6 14 +23 +25 комфорт 1007.4 928.6
00 20.10 ЮЗ 1 15 км 1/0
[Ac As]
+19.5 -0.8 25 +21 +21 комфорт 1007.6 928.8 +16.1 +25.7
03 20.10 ЮВ 2 9000 м дым ясно +15.8 +1.9 39 +16 +16 1005.9 927.3
06 20.10 Ю 2 9000 м дым 5/0
[Ac As Cs]
+13.4 +1.8 45 +13 +13 1004.0 925.6
09 20.10 ЮВ 3 15 км 5/0
[Ac As Cs]
+12.7 +2.0 48 +12 +12 1003.9 925.7
12 20.10 Ю 2 15 км 8/0
[Ac lent Cc]
+17.8 +1.4 33 +18 +20 1006.0 927.4 +12.2 +20.5
15 20.10 ЮВ 7 15 км 1/0
[Ac As]
+23.2 -0.4 21 +22 +27 комфорт 1006.7 928.4
18 20.10 ЮВ 6 15 км 1/0
[Ac As]
+24.2 +1.0 22 +23 +30 комфорт 1006.4 927.8
21 20.10 ЮВ 6 15 км 1/0
[Ac As]
+23.4 -0.7 20 +22 +24 комфорт 1007.6 928.9
00 21.10 ЮВ 4 15 км 1/0
[Ac As]
+18.0 -1.8 26 +18 +18 1012.6 933.4 +17.8 +25.6
03 21.10 Ю 4 15 км ясно +14.8 -1.9 32 +14 +14 1016.3 937.0
06 21.10 Ю 3 15 км ясно +13.2 -2.5 34 +13 +13 1017.1 937.8
09 21.10 Ю 2 15 км ясно +10.8 -1.5 42 +10 +10 1018.7 938.6
12 21.10 СВ 2 15 км ясно +13.6 -1.1 36 +14 +18 1021.7 941.3 +7.7 +18.0
15 21.10 В 7 15 км ясно +17.3 -4.6 22 +16 +22 1021.5 941.0
18 21.10 ЮВ 3 15 км 1/0
[Ci fib]
+20.0 -2.9 21 +20 +34 опасность
простуды
1019.8 939.7
21 21.10 В 5 15 км ясно +21.4 -2.3 20 +21 +23 комфорт 1019.6 939.4

 

Местоположение метеостанции Mendoza (Аргентина): широта -32.83 долгота -68.78 высота над уровнем моря 704 м.

В архиве по умолчанию представлена погода в Mendoza за последнюю неделю. Архивные данные за месяц целиком и за предыдущие месяцы, начиная с января 2011 года, Вы можете получить, выбрав интересующий диапазон дат из раскрывающегося списка и нажав кнопку "Ввод!".

Внимание! Время в таблицах - всемирное. Для получения местного времени необходимо прибавить поправку, которая в Mendoza равна -3 ч.

Смотрите также архив погоды в соседних городах и на ближайших метеорологических станциях:

Погода в San Martin (Аргентина) (44 км)
Погода в San Juan (Аргентина) (163 км)
Погода в Santiago (Чили) (189 км)
Погода в Pudahuel (Чили) (196 км)
Погода в San Rafael (Аргентина) (198 км)
Погода в San Luis (Аргентина) (232 км)
Погода в Punta Angeles (Чили) (268 км)
Погода в San Antonio (Чили) (275 км)
Погода в Santo Domingo (Чили) (279 км)
Погода в Malargue (Аргентина) (306 км)

Пояснения к столбцам:

Ветер - указаны скорость ветра в м/с - средняя за 10 мин, порывы в срок и между сроками (в фигурных скобках) и направление, откуда дует ветер: С - северный, СВ - северо-восточный, В - восточный, ЮВ - юго-восточный, Ю - южный, ЮЗ - юго-западный, З - западный, СЗ - северо-западный.
Видимость - горизонтальная дальность видимости в метрах или километрах. При видимости от 1 до 10 км при отсутствии осадков обычно наблюдается дымка, при ухудшении видимости до 1 км и менее - туман. В сухую погоду видимость может ухудшаться дымом, пылью или мглою.
Явления - указаны атмосферные явления, наблюдавшиеся в срок или в последний час перед сроком; фигурными скобками обозначены явления, наблюдавшиеся между сроками (за 1-3 часа до срока); квадратными скобками обозначены град или гололедные отложения с указанием их диаметра в мм.
Облачность - указаны через наклонную черту общая и нижняя облачность в баллах и высота нижней границы облаков в метрах; квадратными скобками обозначены формы облаков: Ci - перистые, Cs - перисто-слоистые, Cc - перисто-кучевые, Ac - высококучевые, As - высокослоистые, Sc - слоисто-кучевые, Ns - слоисто-дождевые, Cu - кучевые, Cb - кучево-дождевые. Подробнее классификацию облаков см. в Атласе облаков (PDF).
T - Температура воздуха - температура, измеренная на высоте 2 м над землей.
Td - Температура точки росы - температура, при понижении до которой содержащийся в воздухе водяной пар достигнет насыщения.
f - Относительная влажность воздуха - влажноcть воздуха, измеренная на высоте 2 м над землей.
Te - Эффективная температура - температура, которую ощущает одетый по сезону человек в тени. Характеристика душности погоды. При расчете учитывается влияние влажности воздуха и скорости ветра на теплоощущения человека.
Tes - Эффективная температура на солнце - температура, которую ощущает человек, с поправкой на солнечный нагрев. Характеристика знойности погоды. Зависит от высоты солнца над горизонтом, облачности и скорости ветра. Ночью, в пасмурную погоду, а также при ветре 12 м/с и более поправка равна нулю.
P - Атмосферное давление - приведенное к уровню моря атмосферное давление.
Po - Атмосферное давление - измеренное на уровне метеостанции атмосферное давление.
Tmin - Минимальная температура - минимум температуры воздуха на высоте 2 м над землей.
Tmax - Максимальная температура - максимум температуры воздуха на высоте 2 м над землей.
R - Количество осадков - Количество выпавших осадков за период времени, мм. При наведении курсора мыши на число - период времени, за который выпало указанное количество осадков.
R24 - Количество осадков - Количество выпавших осадков за 24 часа, мм.
S - Снежный покров - Высота снежного покрова, см. При наведении курсора мыши на число - состояние снежного покрова и степень покрытия местности в баллах.